Location: Cosy Dell
(34.2789°N, 117.4537°W)
Time: 00:31:27
(UTC+00:00)

Nadezhda 3 Rocket - Pass Details

Date: 14 July 2020
Orbit: 957 x 1000 km, 82.9° (Epoch: 12 August)

Event Time Altitude Azimuth Distance (km) Brightness Sun altitude
Rises 06:02:58 0° 348° (NNW) 3,714 8.1 -28.0°
Reaches altitude 10° 06:05:33 10° 345° (NNW) 2,757 7.3 -28.3°
Maximum altitude 06:11:43 57° 268° (W) 1,143 4.4 -28.9°
Enters shadow 06:12:43 51° 233° (SW) 1,211 4.3 -29.0°
